Tracking 32139 objects as of 18-Nov-2025
HD Live streaming from Space Station
objects crossing your sky now

STARLINK-2620

Track STARLINK-2620 now!
10-day predictions
STARLINK-2620 is classified as:


NORAD ID: 48453
Int'l Code: 2021-040AB
Perigee: 553.3 km
Apogee: 555.3 km
Inclination: 53.1 °
Period: 95.6 minutes
Semi major axis: 6925 km
RCS: Unknown
Launch date: May 9, 2021
Source: United States (US)
Launch site: AIR FORCE EASTERN TEST RANGE (AFETR)
Your satellite tracking list
Your tracking list is empty




NASA's NSSDC Master Catalog

Two Line Element Set (TLE):
1 48453U 21040AB  25322.17809970  .00003746  00000-0  27012-3 0  9991
2 48453  53.0549 322.2122 0001491  91.0447 269.0713 15.06418756249822
Source of the keplerian elements: AFSPC